Albion, NE

9:07 AM CDT on April 25, 2017 (GMT -0500)
Albion Municipal

Weather History for KBVN - December, 2012

Change the Weather History Date:

Saturday, December 22, 2012

  Actual Average (KOFK) Record (KOFK)
Temperature  
Mean Temperature 28 °F -  
Max Temperature 41 °F 31 °F 71 °F (1933)
Min Temperature 14 °F 14 °F -30 °F (1989)
Degree Days  
Heating Degree Days 37    
Moisture  
Dew Point 18 °F    
Average Humidity 74    
Maximum Humidity 89    
Minimum Humidity 47    
Precipitation  
Precipitation 0.00 in - - ()
Sea Level Pressure  
Sea Level Pressure 29.98 in    
Wind  
Wind Speed 7 mph (NNW)    
Max Wind Speed 16 mph    
Max Gust Speed 22 mph    
Visibility 10 miles    
Events      
Averages and records for this station are not official NWS values.
T = Trace of Precipitation, MM = Missing Value Source: NWS Daily Summary

Daily Weather History Graph

Daily Weather History Graph

Search for Another Location

Airport or City:

Trip Planner

Search our weather history database for the weather conditions in past years. The results will help you decide how hot, cold, wet, or windy it might be!

Date:

Astronomy

Dec. 22, 2012 Rise Set
Actual Time 7:56 AM CST 5:05 PM CST
Civil Twilight 7:25 AM CST 5:37 PM CST
Nautical Twilight 6:50 AM CST 6:12 PM CST
Astronomical Twilight 6:16 AM CST 6:46 PM CST
Moon 1:26 PM CST (12/22) 2:40 AM CST (12/22)
Length of Visible Light 10h 12m
Length of Day
9h 08m
Waxing Gibbous, 74% of the Moon is Illuminated
Dec 22
Waxing Gibbous
Dec 28
Full
Jan 4
Last Quarter
Jan 11
New
Jan 18
First Quarter

Hourly Weather History & Observations

Time (CST) Temp. Windchill Dew Point Humidity Pressure Visibility Wind Dir Wind Speed Gust Speed Precip Events Conditions
12:15 AM 22.8 °F 13.6 °F 16.3 °F 76% 30.07 in 10.0 mi South 8.1 mph - N/A   Clear
12:35 AM 23.7 °F 16.6 °F 16.7 °F 75% 30.06 in 10.0 mi SSE 5.8 mph - N/A   Clear
12:55 AM 24.4 °F 17.5 °F 17.8 °F 76% 30.05 in 7.0 mi SE 5.8 mph - N/A   Clear
1:15 AM 25.7 °F 19.0 °F 18.5 °F 74% 30.04 in 7.0 mi SE 5.8 mph - N/A   Clear
1:35 AM 27.0 °F 23.0 °F 19.4 °F 73% 30.04 in 10.0 mi South 3.5 mph - N/A   Clear
1:55 AM 26.4 °F 18.9 °F 19.4 °F 75% 30.03 in 10.0 mi South 6.9 mph - N/A   Clear
2:15 AM 26.1 °F 20.5 °F 19.4 °F 76% 30.03 in 10.0 mi South 4.6 mph - N/A   Clear
2:35 AM 25.9 °F 16.6 °F 19.4 °F 76% 30.03 in 10.0 mi SSW 9.2 mph - N/A   Clear
2:55 AM 25.3 °F 16.7 °F 19.2 °F 78% 30.02 in 10.0 mi SSW 8.1 mph - N/A   Clear
3:15 AM 25.5 °F 18.7 °F 19.2 °F 77% 30.03 in 10.0 mi SSW 5.8 mph - N/A   Clear
3:35 AM 25.2 °F 19.5 °F 18.9 °F 77% 30.01 in 10.0 mi South 4.6 mph - N/A   Clear
3:55 AM 23.2 °F - 18.3 °F 82% 30.00 in 10.0 mi Calm Calm - N/A   Clear
4:15 AM 23.5 °F 16.4 °F 18.5 °F 81% 29.99 in 10.0 mi ESE 5.8 mph - N/A   Clear
4:35 AM 25.3 °F 17.6 °F 19.8 °F 79% 29.97 in 10.0 mi South 6.9 mph - N/A   Clear
4:55 AM 24.3 °F 19.9 °F 19.0 °F 80% 29.98 in 10.0 mi South 3.5 mph - N/A   Clear
5:15 AM 23.4 °F - 18.7 °F 82% 29.96 in 10.0 mi Calm Calm - N/A   Clear
5:35 AM 23.2 °F - 19.0 °F 84% 29.96 in 10.0 mi Calm Calm - N/A   Clear
5:55 AM 21.0 °F 16.2 °F 17.4 °F 86% 29.96 in 10.0 mi WNW 3.5 mph - N/A   Clear
6:15 AM 18.0 °F - 15.1 °F 88% 29.97 in 10.0 mi Calm Calm - N/A   Clear
6:35 AM 20.3 °F - 17.4 °F 89% 29.97 in 10.0 mi Calm Calm - N/A   Clear
6:55 AM 19.6 °F - 15.6 °F 85% 29.96 in 10.0 mi Calm Calm - N/A   Clear
7:15 AM 20.5 °F - 16.0 °F 83% 29.96 in 10.0 mi Calm Calm - N/A   Clear
7:35 AM 19.0 °F - 15.4 °F 86% 29.95 in 10.0 mi Calm Calm - N/A   Clear
7:55 AM 17.8 °F - 13.8 °F 84% 29.95 in 10.0 mi Calm Calm - N/A   Clear
8:15 AM 18.7 °F 11.9 °F 14.4 °F 83% 29.95 in 10.0 mi NNW 4.6 mph - N/A   Clear
8:35 AM 19.0 °F - 14.5 °F 83% 29.95 in 10.0 mi Calm Calm - N/A   Clear
8:55 AM 15.8 °F - 11.8 °F 84% 29.94 in 10.0 mi Calm Calm - N/A   Clear
9:15 AM 19.0 °F 12.3 °F 14.9 °F 84% 29.94 in 10.0 mi NW 4.6 mph - N/A   Clear
9:35 AM 21.0 °F - 16.0 °F 81% 29.94 in 10.0 mi Calm Calm - N/A   Clear
9:55 AM 21.9 °F 15.7 °F 16.0 °F 78% 29.94 in 10.0 mi NW 4.6 mph - N/A   Clear
10:15 AM 25.2 °F 19.5 °F 18.3 °F 75% 29.93 in 10.0 mi NW 4.6 mph - N/A   Clear
10:35 AM 27.0 °F 23.0 °F 18.5 °F 70% 29.94 in 10.0 mi NW 3.5 mph - N/A   Clear
10:55 AM 31.5 °F 24.2 °F 19.8 °F 62% 29.94 in 10.0 mi NW 8.1 mph - N/A   Clear
11:15 AM 34.0 °F 26.0 °F 20.3 °F 57% 29.94 in 10.0 mi NW 10.4 mph - N/A   Clear
11:35 AM 37.4 °F 28.5 °F 21.0 °F 52% 29.93 in 10.0 mi NW 15.0 mph - N/A   Clear
11:55 AM 38.1 °F 30.7 °F 21.6 °F 51% 29.92 in 10.0 mi NW 11.5 mph - N/A   Clear
12:15 PM 39.6 °F 33.0 °F 20.7 °F 47% 29.92 in 10.0 mi NNW 10.4 mph - N/A   Clear
12:35 PM 40.3 °F 33.4 °F 21.4 °F 47% 29.92 in 10.0 mi NNW 11.5 mph - N/A   Clear
12:55 PM 40.8 °F 36.2 °F 22.3 °F 48% 29.92 in 10.0 mi NNW 6.9 mph - N/A   Clear
1:15 PM 41.0 °F 33.5 °F 23.2 °F 49% 29.91 in 10.0 mi NNW 13.8 mph 19.6 mph N/A   Clear
1:35 PM 41.0 °F 34.3 °F 23.5 °F 50% 29.92 in 10.0 mi NNW 11.5 mph - N/A   Clear
1:55 PM 40.3 °F 33.9 °F 24.4 °F 53% 29.92 in 10.0 mi North 10.4 mph - N/A   Clear
2:15 PM 39.4 °F 31.1 °F 24.1 °F 54% 29.92 in 10.0 mi NNW 15.0 mph 20.7 mph N/A   Clear
2:35 PM 38.3 °F 31.9 °F 24.8 °F 58% 29.92 in 10.0 mi NNW 9.2 mph - N/A   Clear
2:55 PM 37.6 °F 30.0 °F 25.2 °F 61% 29.93 in 10.0 mi NNW 11.5 mph 19.6 mph N/A   Clear
3:15 PM 36.0 °F 27.1 °F 24.4 °F 63% 29.93 in 10.0 mi NNW 13.8 mph 19.6 mph N/A   Clear
3:35 PM 34.9 °F 26.6 °F 24.8 °F 67% 29.94 in 10.0 mi NNW 11.5 mph 18.4 mph N/A   Clear
3:55 PM 34.3 °F 26.5 °F 25.0 °F 69% 29.95 in 10.0 mi NNW 10.4 mph - N/A   Clear
4:15 PM 33.8 °F 25.3 °F 25.2 °F 71% 29.96 in 10.0 mi NNW 11.5 mph 18.4 mph N/A   Clear
4:35 PM 32.7 °F 22.5 °F 24.8 °F 73% 29.96 in 10.0 mi North 15.0 mph 20.7 mph N/A   Clear
4:55 PM 31.1 °F 21.4 °F 23.0 °F 72% 29.97 in 10.0 mi NNW 12.7 mph 19.6 mph N/A   Clear
5:15 PM 29.5 °F 19.9 °F 21.9 °F 73% 29.98 in 10.0 mi NNW 11.5 mph 18.4 mph N/A   Clear
5:35 PM 28.2 °F 16.3 °F 21.2 °F 75% 29.98 in 10.0 mi NNW 16.1 mph 21.9 mph N/A   Clear
5:55 PM 27.0 °F 16.7 °F 20.1 °F 75% 29.99 in 10.0 mi North 11.5 mph 18.4 mph N/A   Clear
6:15 PM 25.9 °F 18.2 °F 19.6 °F 77% 29.99 in 10.0 mi North 6.9 mph - N/A   Clear
6:35 PM 25.3 °F 17.6 °F 19.0 °F 77% 29.99 in 10.0 mi North 6.9 mph - N/A   Clear
6:55 PM 24.6 °F 13.8 °F 18.5 °F 78% 29.99 in 10.0 mi North 11.5 mph 17.3 mph N/A   Clear
7:15 PM 23.9 °F 11.2 °F 18.1 °F 79% 29.99 in 10.0 mi North 15.0 mph 20.7 mph N/A   Clear
7:35 PM 23.0 °F 12.4 °F 17.6 °F 80% 30.00 in 10.0 mi North 10.4 mph 18.4 mph N/A   Clear
7:55 PM 22.3 °F 10.8 °F 17.1 °F 80% 30.01 in 10.0 mi NNW 11.5 mph 16.1 mph N/A   Clear
8:15 PM 21.4 °F 9.1 °F 16.3 °F 81% 30.02 in 10.0 mi North 12.7 mph 19.6 mph N/A   Clear
8:35 PM 20.3 °F 6.6 °F 15.4 °F 81% 30.01 in 10.0 mi North 15.0 mph - N/A   Clear
8:55 PM 19.8 °F 8.3 °F 14.9 °F 81% 30.02 in 10.0 mi NNW 10.4 mph 16.1 mph N/A   Clear
9:15 PM 19.0 °F 7.5 °F 14.0 °F 81% 30.01 in 10.0 mi NNW 10.4 mph 18.4 mph N/A   Clear
9:35 PM 18.3 °F 6.6 °F 13.8 °F 83% 30.02 in 10.0 mi NNW 10.4 mph 16.1 mph N/A   Clear
9:55 PM 17.8 °F 6.6 °F 13.3 °F 83% 30.03 in 10.0 mi NNW 9.2 mph - N/A   Clear
10:15 PM 17.4 °F 9.1 °F 13.1 °F 83% 30.02 in 10.0 mi NNW 5.8 mph - N/A   Clear
10:35 PM 16.7 °F 5.3 °F 12.7 °F 84% 30.02 in 10.0 mi North 9.2 mph - N/A   Clear
10:55 PM 16.3 °F 5.7 °F 12.4 °F 84% 30.02 in 10.0 mi NNW 8.1 mph - N/A   Clear
11:15 PM 15.8 °F 7.2 °F 12.0 °F 85% 30.02 in 10.0 mi North 5.8 mph - N/A   Clear
11:35 PM 15.4 °F 6.8 °F 11.5 °F 84% 30.02 in 10.0 mi NNW 5.8 mph - N/A   Clear
11:55 PM 14.9 °F 1.6 °F 11.3 °F 86% 30.02 in 10.0 mi NNW 11.5 mph - N/A   Clear